GW6518 Weather Reports


time (UTC)temp
C
wind
direction
speed
KPH
gust
KPH
rain 1hr
cm
rain 24hr
cm
rain mn
cm
humidity
%
barometer
mb
20260504130506 7 330 11.3 17.7 0.00 0.00 0.00 59 1015.3
20260504110511 8 352 12.9 19.3 0.00 0.00 0.00 60 1015.6
20260504100506 8 1 9.7 16.1 0.00 0.00 0.00 59 1015.3
20260504081528 8 56 27.4 37.0 0.00 0.00 0.00 56 1014.2
20260504081013 9 48 27.4 37.0 0.00 0.00 0.00 56 1014.0
20260504080505 9 45 29.0 43.5 0.00 0.00 0.00 55 1014.0
20260504050503 13 34 43.5 67.6 0.00 0.00 0.00 35 1009.3
20260504050010 13 50 49.9 67.6 0.00 0.00 0.00 35 1009.1
20260504045504 13 35 48.3 59.5 0.00 0.00 0.00 36 1008.8
20260504045006 13 47 41.8 56.3 0.00 0.00 0.00 39 1008.6
20260504044512 13 48 22.5 29.0 0.00 0.00 0.00 42 1008.5
20260504044007 12 51 17.7 24.1 0.00 0.00 0.00 44 1008.2
20260504043505 12 38 17.7 24.1 0.00 0.00 0.00 44 1008.1
20260504043017 12 53 17.7 19.3 0.00 0.00 0.00 44 1008.0
20260504042505 12 57 16.1 19.3 0.00 0.00 0.00 43 1007.9
20260504042005 12 51 16.1 19.3 0.00 0.00 0.00 43 1007.8
20260504041522 12 58 14.5 17.7 0.00 0.00 0.00 43 1007.8
20260504041007 12 51 14.5 17.7 0.00 0.00 0.00 42 1007.7
20260504040507 12 51 12.9 17.7 0.00 0.00 0.00 42 1007.6
20260504040020 12 64 14.5 17.7 0.00 0.00 0.00 42 1007.5
20260504035508 12 58 14.5 17.7 0.00 0.00 0.00 42 1007.5
20260504035008 12 50 14.5 19.3 0.00 0.00 0.00 42 1007.5
20260504034511 12 49 14.5 20.9 0.00 0.00 0.00 41 1007.5
20260504034004 12 55 16.1 20.9 0.00 0.00 0.00 41 1007.5
20260504033504 12 53 16.1 19.3 0.00 0.00 0.00 42 1007.3
20260504033014 12 57 16.1 19.3 0.00 0.00 0.00 41 1007.2
20260504032506 12 74 12.9 16.1 0.00 0.00 0.00 40 1007.2
20260504032005 13 60 14.5 16.1 0.00 0.00 0.00 38 1007.1
20260504031518 13 53 14.5 16.1 0.00 0.00 0.00 37 1007.1
20260504031006 15 57 12.9 19.3 0.00 0.00 0.00 35 1007.0
20260504030508 15 58 16.1 19.3 0.00 0.00 0.00 34 1006.8
20260504030025 15 55 17.7 19.3 0.00 0.00 0.00 33 1006.7
20260504025507 15 47 16.1 19.3 0.00 0.00 0.00 32 1006.6
20260504025009 16 40 12.9 14.5 0.00 0.00 0.00 29 1006.6
20260504024509 17 45 11.3 12.9 0.00 0.00 0.00 27 1006.6
20260504024004 17 41 9.7 16.1 0.00 0.00 0.00 25 1006.6
20260504023502 18 48 8.0 16.1 0.00 0.00 0.00 25 1006.4
20260504023013 19 30 11.3 16.1 0.00 0.00 0.00 24 1006.4
20260504022504 19 6 9.7 20.9 0.00 0.00 0.00 24 1006.4
20260504022006 20 15 14.5 20.9 0.00 0.00 0.00 24 1006.3
20260504021513 20 20 16.1 24.1 0.00 0.00 0.00 23 1006.4
20260504021005 20 31 17.7 24.1 0.00 0.00 0.00 23 1006.4
20260504020507 20 30 17.7 24.1 0.00 0.00 0.00 22 1006.4
20260504020023 21 12 16.1 24.1 0.00 0.00 0.00 22 1006.4
20260504015508 21 18 17.7 25.7 0.00 0.00 0.00 21 1006.4
20260504015012 21 2 19.3 25.7 0.00 0.00 0.00 21 1006.4
20260504014525 22 8 17.7 24.1 0.00 0.00 0.00 21 1006.5
20260504014009 22 23 16.1 27.4 0.00 0.00 0.00 20 1006.5
20260504013509 22 4 22.5 27.4 0.00 0.00 0.00 20 1006.5
20260504013009 22 18 19.3 30.6 0.00 0.00 0.00 20 1006.5
20260504012502 22 359 20.9 32.2 0.00 0.00 0.00 19 1006.5
20260504012004 22 358 22.5 32.2 0.00 0.00 0.00 19 1006.6
20260504011513 22 1 22.5 30.6 0.00 0.00 0.00 19 1006.6
20260504011003 22 12 17.7 29.0 0.00 0.00 0.00 19 1006.6
20260504010508 23 30 19.3 32.2 0.00 0.00 0.00 19 1006.6
20260504010016 23 360 24.1 32.2 0.00 0.00 0.00 19 1006.7
20260504005507 23 1 24.1 30.6 0.00 0.00 0.00 19 1006.7
20260504005008 23 10 19.3 30.6 0.00 0.00 0.00 19 1006.7
20260504004533 23 1 20.9 30.6 0.00 0.00 0.00 19 1006.8
20260504004009 23 343 16.1 33.8 0.00 0.00 0.00 18 1006.8
20260504003510 23 3 20.9 33.8 0.00 0.00 0.00 19 1006.8
20260504003025 23 356 25.7 33.8 0.00 0.00 0.00 19 1006.8
20260504002509 23 352 19.3 30.6 0.00 0.00 0.00 18 1006.8
20260504002009 23 359 17.7 30.6 0.00 0.00 0.00 18 1007.0
20260504001509 23 1 17.7 30.6 0.00 0.00 0.00 18 1007.0
20260504001002 23 343 20.9 27.4 0.00 0.00 0.00 18 1006.9
20260504000504 23 12 22.5 30.6 0.00 0.00 0.00 18 1006.9
20260504000015 23 359 17.7 35.4 0.00 0.00 0.00 18 1007.0
20260503235506 23 359 25.7 35.4 0.00 0.00 0.00 17 1007.0
20260503235007 23 328 19.3 35.4 0.00 0.00 0.00 18 1006.9
20260503234523 23 336 22.5 35.4 0.00 0.00 0.00 18 1006.7
20260503234006 23 1 12.9 38.6 0.00 0.00 0.00 18 1007.0
20260503233505 23 352 19.3 38.6 0.00 0.00 0.00 18 1007.0
20260503233023 23 359 27.4 38.6 0.00 0.00 0.00 18 1007.0
20260503232510 23 8 16.1 33.8 0.00 0.00 0.00 19 1007.0
20260503232008 23 1 17.7 33.8 0.00 0.00 0.00 18 1007.1
20260503231526 23 13 25.7 43.5 0.00 0.00 0.00 18 1007.0
20260503231009 23 360 29.0 43.5 0.00 0.00 0.00 18 1007.1
20260503230508 23 340 20.9 35.4 0.00 0.00 0.00 18 1007.1
20260503230012 23 356 24.1 35.4 0.00 0.00 0.00 17 1007.2
20260503225505 23 1 29.0 35.4 0.00 0.00 0.00 18 1007.2
20260503225009 23 321 20.9 30.6 0.00 0.00 0.00 17 1007.2
20260503224517 23 353 17.7 33.8 0.00 0.00 0.00 17 1007.4
20260503224008 23 359 25.7 33.8 0.00 0.00 0.00 16 1007.4
20260503223508 23 26 14.5 27.4 0.00 0.00 0.00 15 1007.4
20260503223021 23 330 19.3 37.0 0.00 0.00 0.00 16 1007.6
20260503222506 23 1 22.5 37.0 0.00 0.00 0.00 15 1007.6
20260503222012 23 6 25.7 35.4 0.00 0.00 0.00 15 1007.6
20260503221527 23 325 24.1 37.0 0.00 0.00 0.00 15 1007.7
20260503221009 24 334 17.7 37.0 0.00 0.00 0.00 15 1007.7
20260503220514 24 317 17.7 35.4 0.00 0.00 0.00 15 1007.7
20260503220028 23 300 22.5 32.2 0.00 0.00 0.00 14 1007.8
20260503215510 23 334 14.5 38.6 0.00 0.00 0.00 14 1007.8
20260503215006 23 352 25.7 38.6 0.00 0.00 0.00 14 1007.8
20260503214518 23 359 20.9 30.6 0.00 0.00 0.00 16 1007.9
20260503214005 23 341 19.3 35.4 0.00 0.00 0.00 16 1008.0
20260503213511 23 300 24.1 35.4 0.00 0.00 0.00 15 1008.0
20260503213021 23 310 25.7 38.6 0.00 0.00 0.00 15 1008.1
20260503212508 23 336 27.4 38.6 0.00 0.00 0.00 15 1008.1
20260503212012 23 333 19.3 38.6 0.00 0.00 0.00 16 1008.2
20260503211523 23 330 24.1 38.6 0.00 0.00 0.00 17 1008.3
20260503211016 23 304 16.1 29.0 0.00 0.00 0.00 17 1008.5
20260503210508 23 325 12.9 29.0 0.00 0.00 0.00 17 1008.5
20260503210026 23 306 16.1 40.2 0.00 0.00 0.00 18 1008.7
20260503205512 23 338 22.5 41.8 0.00 0.00 0.00 18 1008.8
20260503205008 23 305 22.5 41.8 0.00 0.00 0.00 17 1008.7
20260503204529 23 311 22.5 38.6 0.00 0.00 0.00 19 1008.9
20260503204016 23 295 17.7 41.8 0.00 0.00 0.00 17 1008.9
20260503203507 23 334 20.9 41.8 0.00 0.00 0.00 18 1009.1
20260503203020 23 313 22.5 41.8 0.00 0.00 0.00 19 1009.0
20260503202510 22 299 19.3 33.8 0.00 0.00 0.00 20 1009.2
20260503202010 22 293 25.7 38.6 0.00 0.00 0.00 19 1009.3
20260503201521 22 326 24.1 38.6 0.00 0.00 0.00 19 1009.3
20260503201004 23 309 24.1 37.0 0.00 0.00 0.00 19 1009.4
20260503200503 23 338 20.9 37.0 0.00 0.00 0.00 19 1009.3
20260503200008 23 317 27.4 37.0 0.00 0.00 0.00 19 1009.5
20260503195504 23 317 11.3 35.4 0.00 0.00 0.00 19 1009.6
20260503195005 22 345 20.9 35.4 0.00 0.00 0.00 20 1009.8
20260503194510 23 308 20.9 35.4 0.00 0.00 0.00 19 1009.9
20260503194004 23 348 20.9 35.4 0.00 0.00 0.00 20 1009.9
20260503193504 23 302 20.9 38.6 0.00 0.00 0.00 20 1009.9
20260503193035 22 318 22.5 38.6 0.00 0.00 0.00 20 1010.1
20260503192507 22 301 29.0 38.6 0.00 0.00 0.00 21 1010.2
20260503192008 22 297 25.7 38.6 0.00 0.00 0.00 21 1010.3
20260503191522 22 285 12.9 35.4 0.00 0.00 0.00 21 1010.2
20260503191010 22 349 25.7 32.2 0.00 0.00 0.00 21 1010.4
20260503190503 22 347 12.9 29.0 0.00 0.00 0.00 23 1010.4
20260503190004 22 302 12.9 43.5 0.00 0.00 0.00 23 1010.5
20260503185503 22 312 29.0 43.5 0.00 0.00 0.00 22 1010.8
20260503185003 22 307 16.1 30.6 0.00 0.00 0.00 23 1010.8
20260503184517 22 304 22.5 35.4 0.00 0.00 0.00 22 1010.9
20260503184008 22 336 19.3 35.4 0.00 0.00 0.00 23 1011.1
20260503183504 21 324 16.1 27.4 0.00 0.00 0.00 25 1011.1
20260503183013 21 310 12.9 25.7 0.00 0.00 0.00 25 1011.2
20260503182505 21 323 16.1 25.7 0.00 0.00 0.00 27 1011.3
20260503182009 21 325 12.9 22.5 0.00 0.00 0.00 27 1011.5
20260503181518 21 347 17.7 22.5 0.00 0.00 0.00 27 1011.5
20260503181008 21 313 14.5 19.3 0.00 0.00 0.00 30 1011.6
20260503180509 20 304 8.0 17.7 0.00 0.00 0.00 30 1011.6
20260503180026 20 349 11.3 16.1 0.00 0.00 0.00 31 1011.5
20260503175510 20 240 4.8 16.1 0.00 0.00 0.00 31 1011.7
20260503175003 20 339 4.8 16.1 0.00 0.00 0.00 31 1011.8
20260503174506 20 288 9.7 17.7 0.00 0.00 0.00 33 1012.0
20260503174003 20 342 8.0 17.7 0.00 0.00 0.00 34 1012.1
20260503173503 20 307 6.4 17.7 0.00 0.00 0.00 34 1012.1
20260503173022 20 290 9.7 12.9 0.00 0.00 0.00 39 1012.2
20260503172506 19 255 6.4 12.9 0.00 0.00 0.00 40 1012.1
20260503172004 19 330 4.8 14.5 0.00 0.00 0.00 40 1012.2
20260503171522 18 277 8.0 14.5 0.00 0.00 0.00 41 1012.2
20260503171008 18 172 4.8 17.7 0.00 0.00 0.00 42 1012.1
20260503170508 18 273 9.7 17.7 0.00 0.00 0.00 42 1012.1
20260503151004 12 240 12.9 22.5 0.00 0.00 0.00 63 1013.4
20260503150504 11 238 11.3 22.5 0.00 0.00 0.00 64 1013.4